• In Österreich
  • Länderverzeichnis
  • Für 7 Tage
  • Wassertemperatur
  • Satellitenkarten
  • Wetterkarte
  • News
  • Widgets
  • user-avatar
    Anmelden

    Stündliche Wetter Korçe

    Heute, 18 Juli, Mittwoch

    Zeit Temperatur Niederschläge Wind Luftdruck Luftfeuchtigkeit
    00:00 +15°C° 0 mm 1 m/S 664 mmHg 93%
    01:00 +15°C° 0 mm 1 m/S 664 mmHg 93%
    02:00 +14°C° 0 mm 1 m/S 664 mmHg 93%
    03:00 +14°C° 0 mm 1 m/S 664 mmHg 93%
    04:00 +14°C° 0 mm 1 m/S 664 mmHg 93%
    05:00 +15°C° 0 mm 1 m/S 664 mmHg 87%
    06:00 +18°C° 0 mm 1 m/S 664 mmHg 81%
    07:00 +20°C° 0 mm 1 m/S 665 mmHg 71%
    08:00 +20°C° 0 mm 2 m/S 665 mmHg 65%
    09:00 +21°C° 0 mm 2 m/S 666 mmHg 60%
    10:00 +24°C° 0 mm 2 m/S 666 mmHg 54%
    11:00 +24°C° 0,1 mm 3 m/S 666 mmHg 52%
    12:00 +25°C° 0,1 mm 3 m/S 666 mmHg 50%
    13:00 +26°C° 0,1 mm 4 m/S 666 mmHg 48%
    14:00 +25°C° 0,1 mm 4 m/S 666 mmHg 49%
    15:00 +25°C° 0,1 mm 4 m/S 666 mmHg 50%
    16:00 +23°C° 0,1 mm 4 m/S 666 mmHg 52%
    17:00 +21°C° 0 mm 4 m/S 665 mmHg 59%
    18:00 +20°C° 0 mm 3 m/S 665 mmHg 66%
    19:00 +18°C° 0 mm 2 m/S 665 mmHg 73%
    20:00 +17°C° 0 mm 2 m/S 665 mmHg 76%
    21:00 +16°C° 0 mm 2 m/S 665 mmHg 79%
    22:00 +15°C° 0 mm 2 m/S 665 mmHg 82%
    23:00 +15°C° 0 mm 1 m/S 665 mmHg 82%

    Morgen, 19 Juli, Donnerstag

    Zeit Temperatur Niederschläge Wind Luftdruck Luftfeuchtigkeit
    00:00 +14°C° 0 mm 1 m/S 665 mmHg 83%
    01:00 +14°C° 0 mm 1 m/S 665 mmHg 83%
    02:00 +14°C° 0 mm 1 m/S 665 mmHg 83%
    03:00 +14°C° 0 mm 1 m/S 665 mmHg 82%
    04:00 +14°C° 0 mm 1 m/S 664 mmHg 82%
    05:00 +16°C° 0 mm 1 m/S 665 mmHg 75%
    06:00 +18°C° 0 mm 2 m/S 665 mmHg 68%
    07:00 +19°C° 0 mm 2 m/S 666 mmHg 61%
    08:00 +21°C° 0 mm 3 m/S 666 mmHg 55%
    09:00 +22°C° 0 mm 3 m/S 667 mmHg 49%
    10:00 +25°C° 0 mm 4 m/S 667 mmHg 43%
    11:00 +25°C° 0 mm 4 m/S 667 mmHg 42%
    12:00 +25°C° 0 mm 5 m/S 667 mmHg 42%
    13:00 +26°C° 0 mm 5 m/S 667 mmHg 41%
    14:00 +25°C° 0 mm 5 m/S 667 mmHg 43%
    15:00 +25°C° 0 mm 4 m/S 667 mmHg 45%
    16:00 +25°C° 0 mm 4 m/S 667 mmHg 47%
    17:00 +22°C° 0 mm 4 m/S 666 mmHg 54%
    18:00 +20°C° 0 mm 3 m/S 666 mmHg 61%
    19:00 +18°C° 0 mm 2 m/S 665 mmHg 68%
    20:00 +17°C° 0 mm 2 m/S 665 mmHg 71%
    21:00 +16°C° 0 mm 2 m/S 666 mmHg 73%
    22:00 +15°C° 0 mm 1 m/S 666 mmHg 76%
    23:00 +15°C° 0 mm 1 m/S 666 mmHg 77%

    übermorgen, 20 Juli, Freitag

    Zeit Temperatur Niederschläge Wind Luftdruck Luftfeuchtigkeit
    00:00 +15°C° 0 mm 1 m/S 665 mmHg 78%
    01:00 +15°C° 0 mm 1 m/S 665 mmHg 79%
    02:00 +15°C° 0 mm 1 m/S 665 mmHg 79%
    03:00 +15°C° 0 mm 1 m/S 665 mmHg 80%
    04:00 +15°C° 0 mm 1 m/S 665 mmHg 81%
    05:00 +16°C° 0 mm 1 m/S 665 mmHg 76%
    06:00 +19°C° 0 mm 1 m/S 666 mmHg 70%
    07:00 +21°C° 0 mm 1 m/S 666 mmHg 65%
    08:00 +22°C° 0 mm 1 m/S 667 mmHg 60%
    09:00 +24°C° 0 mm 2 m/S 667 mmHg 54%
    10:00 +25°C° 0 mm 2 m/S 668 mmHg 49%
    11:00 +26°C° 0 mm 2 m/S 668 mmHg 48%
    12:00 +26°C° 0 mm 2 m/S 668 mmHg 47%
    13:00 +27°C° 0 mm 3 m/S 668 mmHg 47%
    14:00 +26°C° 0 mm 3 m/S 667 mmHg 49%
    15:00 +26°C° 0 mm 3 m/S 667 mmHg 51%
    16:00 +26°C° 0 mm 3 m/S 667 mmHg 53%
    17:00 +24°C° 0 mm 2 m/S 667 mmHg 59%
    18:00 +21°C° 0 mm 2 m/S 667 mmHg 65%
    19:00 +20°C° 0 mm 2 m/S 666 mmHg 72%
    20:00 +19°C° 0 mm 2 m/S 666 mmHg 74%
    21:00 +19°C° 0 mm 1 m/S 667 mmHg 77%
    22:00 +18°C° 0 mm 1 m/S 667 mmHg 79%
    23:00 +18°C° 0 mm 1 m/S 667 mmHg 80%

    21 Juli, Samstag

    Zeit Temperatur Niederschläge Wind Luftdruck Luftfeuchtigkeit
    00:00 +16°C° 0 mm 1 m/S 666 mmHg 81%
    01:00 +16°C° 0 mm 1 m/S 666 mmHg 81%
    02:00 +16°C° 0 mm 1 m/S 666 mmHg 82%
    03:00 +16°C° 0 mm 1 m/S 666 mmHg 82%
    04:00 +16°C° 0 mm 1 m/S 666 mmHg 82%
    05:00 +18°C° 0 mm 1 m/S 667 mmHg 76%
    06:00 +20°C° 0 mm 1 m/S 667 mmHg 71%
    07:00 +22°C° 0 mm 1 m/S 668 mmHg 65%
    08:00 +24°C° 0 mm 1 m/S 668 mmHg 57%
    09:00 +25°C° 0 mm 1 m/S 669 mmHg 49%
    10:00 +27°C° 0 mm 2 m/S 669 mmHg 41%
    11:00 +27°C° 0 mm 2 m/S 669 mmHg 39%
    12:00 +28°C° 0 mm 3 m/S 669 mmHg 36%
    13:00 +29°C° 0 mm 3 m/S 669 mmHg 34%
    14:00 +29°C° 0 mm 3 m/S 669 mmHg 35%
    15:00 +28°C° 0 mm 3 m/S 668 mmHg 36%
    16:00 +28°C° 0 mm 3 m/S 668 mmHg 37%
    17:00 +26°C° 0 mm 2 m/S 668 mmHg 43%
    18:00 +23°C° 0 mm 2 m/S 667 mmHg 49%
    19:00 +21°C° 0 mm 1 m/S 667 mmHg 56%
    20:00 +20°C° 0 mm 1 m/S 667 mmHg 56%
    21:00 +20°C° 0 mm 1 m/S 666 mmHg 56%
    22:00 +19°C° 0 mm 1 m/S 666 mmHg 56%
    23:00 +19°C° 0 mm 1 m/S 666 mmHg 54%

    22 Juli, Sonntag

    Zeit Temperatur Niederschläge Wind Luftdruck Luftfeuchtigkeit
    00:00 +19°C° 0 mm 1 m/S 666 mmHg 53%
    01:00 +18°C° 0 mm 1 m/S 666 mmHg 51%
    02:00 +18°C° 0 mm 1 m/S 666 mmHg 51%
    03:00 +18°C° 0 mm 1 m/S 665 mmHg 50%
    04:00 +17°C° 0 mm 2 m/S 665 mmHg 49%
    05:00 +19°C° 0 mm 2 m/S 666 mmHg 49%
    06:00 +21°C° 0 mm 2 m/S 666 mmHg 48%
    07:00 +24°C° 0 mm 2 m/S 666 mmHg 48%
    08:00 +25°C° 0 mm 2 m/S 666 mmHg 44%
    09:00 +27°C° 0 mm 3 m/S 667 mmHg 39%
    10:00 +29°C° 0 mm 3 m/S 667 mmHg 34%
    11:00 +29°C° 0 mm 4 m/S 666 mmHg 34%
    12:00 +30°C° 0 mm 4 m/S 666 mmHg 33%
    13:00 +30°C° 0 mm 5 m/S 665 mmHg 32%
    14:00 +29°C° 0 mm 5 m/S 665 mmHg 35%
    15:00 +29°C° 0 mm 5 m/S 664 mmHg 38%
    16:00 +28°C° 0 mm 5 m/S 664 mmHg 41%
    17:00 +26°C° 0 mm 4 m/S 663 mmHg 49%
    18:00 +22°C° 0 mm 4 m/S 662 mmHg 58%
    19:00 +20°C° 0 mm 3 m/S 662 mmHg 66%
    20:00 +19°C° 0 mm 3 m/S 661 mmHg 71%
    21:00 +18°C° 0 mm 3 m/S 661 mmHg 76%
    22:00 +17°C° 0 mm 3 m/S 661 mmHg 81%
    23:00 +16°C° 0,1 mm 2 m/S 661 mmHg 83%

    23 Juli, Montag

    Zeit Temperatur Niederschläge Wind Luftdruck Luftfeuchtigkeit
    00:00 +16°C° 0,1 mm 2 m/S 661 mmHg 84%
    01:00 +16°C° 0,1 mm 2 m/S 660 mmHg 86%
    02:00 +15°C° 0,1 mm 2 m/S 660 mmHg 86%
    03:00 +15°C° 0,1 mm 2 m/S 660 mmHg 87%
    04:00 +15°C° 0,1 mm 1 m/S 660 mmHg 87%
    05:00 +16°C° 0,3 mm 1 m/S 660 mmHg 83%
    06:00 +18°C° 0,3 mm 1 m/S 661 mmHg 79%
    07:00 +19°C° 0,3 mm 1 m/S 661 mmHg 76%
    08:00 +20°C° 0,7 mm 1 m/S 661 mmHg 71%
    09:00 +21°C° 0,7 mm 1 m/S 661 mmHg 66%
    10:00 +21°C° 0,7 mm 2 m/S 662 mmHg 62%
    11:00 +23°C° 1,7 mm 2 m/S 662 mmHg 60%
    12:00 +23°C° 1,7 mm 2 m/S 661 mmHg 58%
    13:00 +24°C° 1,7 mm 2 m/S 661 mmHg 56%
    14:00 +23°C° 2,3 mm 2 m/S 661 mmHg 59%
    15:00 +23°C° 2,3 mm 2 m/S 661 mmHg 62%
    16:00 +21°C° 2,3 mm 2 m/S 661 mmHg 66%
    17:00 +20°C° 1,6 mm 2 m/S 661 mmHg 71%
    18:00 +19°C° 1,6 mm 1 m/S 661 mmHg 76%
    19:00 +18°C° 1,6 mm 1 m/S 661 mmHg 80%
    20:00 +18°C° 0,7 mm 1 m/S 661 mmHg 82%
    21:00 +16°C° 0,7 mm 1 m/S 661 mmHg 83%
    22:00 +15°C° 0,7 mm 1 m/S 660 mmHg 85%
    23:00 +15°C° 0,6 mm 1 m/S 660 mmHg 85%
    Mehr zeigen